KLJ6412 LEMH-EGNX

Flight info

Callsign KLJ6412
Flight time N/A
Altitude 38000
Route MEROS DCT LAPIT DCT CHELY DCT LUMAS DCT SOFFY DCT MRM DCT MTL DCT ETREK DCT MADOT DCT MOPEM DCT CACHI DCT AVLON DCT OKRIX DCT BRY DCT CLM DCT KOPOR DCT ABNUR DCT DIMAL DCT ALESO T420 HEMEL
Aircraft A319/M-SDE3FGHIRWY/LB1

Departure

Time N/A
Airport Menorca Airport (LEMH)

Arrival

Time 2026-04-28 17:51
Airport East Midlands Airport (EGNX)
Time Latitude Longitude Altitude Speed Heading
2026-04-28 17:18 50.62499 1.14533 38190 ft 436 kts 317°
2026-04-28 17:18 50.64658 1.11174 38196 ft 436 kts 318°
2026-04-28 17:19 50.68988 1.04460 38196 ft 437 kts 318°
2026-04-28 17:19 50.73301 0.97677 38201 ft 438 kts 317°
2026-04-28 17:20 50.76893 0.91942 38217 ft 438 kts 317°
2026-04-28 17:20 50.81145 0.85140 38234 ft 438 kts 317°
2026-04-28 17:21 50.85745 0.77785 38244 ft 437 kts 316°
2026-04-28 17:22 50.92152 0.67506 38290 ft 437 kts 317°
2026-04-28 17:22 50.96453 0.60570 38060 ft 452 kts 318°
2026-04-28 17:23 51.00962 0.53294 37581 ft 465 kts 317°
2026-04-28 17:23 51.03223 0.49628 37338 ft 464 kts 317°
2026-04-28 17:23 51.05474 0.45967 37111 ft 463 kts 318°
2026-04-28 17:23 51.07711 0.42341 36855 ft 456 kts 318°
2026-04-28 17:24 51.09959 0.38816 36423 ft 452 kts 319°
2026-04-28 17:24 51.12222 0.35369 35954 ft 449 kts 320°
2026-04-28 17:24 51.14490 0.31965 35489 ft 447 kts 320°
2026-04-28 17:24 51.16747 0.28585 34995 ft 445 kts 320°
2026-04-28 17:25 51.18988 0.25199 34481 ft 443 kts 320°
2026-04-28 17:25 51.23385 0.18469 33406 ft 437 kts 320°
2026-04-28 17:25 51.25564 0.15104 32899 ft 434 kts 320°
2026-04-28 17:26 51.27725 0.11760 32394 ft 431 kts 320°
2026-04-28 17:26 51.29880 0.08432 31899 ft 429 kts 321°
2026-04-28 17:26 51.32021 0.05147 31409 ft 425 kts 323°
2026-04-28 17:26 51.34349 0.02312 30902 ft 415 kts 335°
2026-04-28 17:27 51.36817 -0.00026 30434 ft 410 kts 336°
2026-04-28 17:27 51.39271 -0.02353 30001 ft 408 kts 337°
2026-04-28 17:27 51.41701 -0.04670 29523 ft 404 kts 337°
2026-04-28 17:27 51.44089 -0.06955 29189 ft 398 kts 337°
2026-04-28 17:28 51.46456 -0.09218 28801 ft 394 kts 337°
2026-04-28 17:28 51.51121 -0.13676 28026 ft 386 kts 338°
2026-04-28 17:28 51.53417 -0.15868 27632 ft 383 kts 338°
2026-04-28 17:29 51.55695 -0.18042 27245 ft 379 kts 338°
2026-04-28 17:29 51.57948 -0.20195 26937 ft 376 kts 338°
2026-04-28 17:29 51.60253 -0.22388 26573 ft 396 kts 338°
2026-04-28 17:30 51.65051 -0.26966 25652 ft 401 kts 338°
2026-04-28 17:30 51.69821 -0.31569 24686 ft 397 kts 338°
2026-04-28 17:30 51.72189 -0.33851 24205 ft 395 kts 338°
2026-04-28 17:31 51.74536 -0.36108 23674 ft 392 kts 338°
2026-04-28 17:31 51.79173 -0.40608 22563 ft 386 kts 337°
2026-04-28 17:32 51.83714 -0.45028 21670 ft 380 kts 337°
2026-04-28 17:32 51.85977 -0.47222 21236 ft 378 kts 337°
2026-04-28 17:32 51.88226 -0.49404 20804 ft 376 kts 337°
2026-04-28 17:32 51.90468 -0.51580 20381 ft 374 kts 336°
2026-04-28 17:33 51.92697 -0.53750 19963 ft 373 kts 336°
2026-04-28 17:33 51.94913 -0.55915 19520 ft 371 kts 336°
2026-04-28 17:33 51.97114 -0.58067 19108 ft 369 kts 336°
2026-04-28 17:33 51.98601 -0.59519 18824 ft 368 kts 336°
2026-04-28 17:34 52.01498 -0.62354 18237 ft 366 kts 335°
2026-04-28 17:34 52.03670 -0.64484 17844 ft 364 kts 335°
2026-04-28 17:34 52.05828 -0.66603 17418 ft 361 kts 335°
2026-04-28 17:34 52.07969 -0.68707 17020 ft 359 kts 335°
2026-04-28 17:35 52.10097 -0.70798 16611 ft 356 kts 335°
2026-04-28 17:35 52.12212 -0.72879 16206 ft 354 kts 335°
2026-04-28 17:35 52.14312 -0.74951 15801 ft 352 kts 334°
2026-04-28 17:35 52.16401 -0.77014 15405 ft 350 kts 334°
2026-04-28 17:36 52.18474 -0.79059 15003 ft 348 kts 334°
2026-04-28 17:36 52.20541 -0.81102 14608 ft 346 kts 334°
2026-04-28 17:36 52.22588 -0.83127 14212 ft 344 kts 334°
2026-04-28 17:36 52.24629 -0.85151 13784 ft 342 kts 333°
2026-04-28 17:37 52.26654 -0.87157 13393 ft 340 kts 333°
2026-04-28 17:37 52.28672 -0.89156 12994 ft 337 kts 334°
2026-04-28 17:37 52.30670 -0.91136 12627 ft 335 kts 333°
2026-04-28 17:37 52.32658 -0.93109 12253 ft 332 kts 333°
2026-04-28 17:38 52.34627 -0.95065 11890 ft 330 kts 333°
2026-04-28 17:38 52.36586 -0.97012 11509 ft 328 kts 333°
2026-04-28 17:38 52.38529 -0.98942 11145 ft 326 kts 333°
2026-04-28 17:38 52.40464 -1.00867 10786 ft 325 kts 333°
2026-04-28 17:39 52.42344 -1.02896 10416 ft 325 kts 323°
2026-04-28 17:39 52.43824 -1.05660 10199 ft 318 kts 311°
2026-04-28 17:39 52.46451 -1.11248 9625 ft 305 kts 311°
2026-04-28 17:40 52.47735 -1.14001 9222 ft 303 kts 310°
2026-04-28 17:40 52.49008 -1.16740 8822 ft 302 kts 311°
2026-04-28 17:40 52.50276 -1.19472 8450 ft 300 kts 311°
2026-04-28 17:40 52.51534 -1.22188 8083 ft 299 kts 310°
2026-04-28 17:41 52.52789 -1.24886 7760 ft 296 kts 310°
2026-04-28 17:41 52.54039 -1.27551 7455 ft 293 kts 310°
2026-04-28 17:41 52.55285 -1.30197 7153 ft 292 kts 310°
2026-04-28 17:41 52.56520 -1.32823 6874 ft 290 kts 311°
2026-04-28 17:42 52.57752 -1.35458 6651 ft 291 kts 311°
2026-04-28 17:42 52.58568 -1.37203 6493 ft 290 kts 311°
2026-04-28 17:42 52.60324 -1.40483 6183 ft 286 kts 320°
2026-04-28 17:42 52.61758 -1.42731 5951 ft 283 kts 321°
2026-04-28 17:43 52.63183 -1.44965 5723 ft 283 kts 321°
2026-04-28 17:43 52.64595 -1.47203 5490 ft 281 kts 321°
2026-04-28 17:43 52.66000 -1.49428 5260 ft 279 kts 321°
2026-04-28 17:43 52.67395 -1.51641 5046 ft 277 kts 320°
2026-04-28 17:44 52.68781 -1.53828 4872 ft 273 kts 321°
2026-04-28 17:44 52.70132 -1.55975 4641 ft 267 kts 321°
2026-04-28 17:44 52.71457 -1.58092 4387 ft 263 kts 321°
2026-04-28 17:44 52.72758 -1.60185 4153 ft 259 kts 321°
2026-04-28 17:45 52.74068 -1.62125 4029 ft 246 kts 333°
2026-04-28 17:45 52.75049 -1.62956 3917 ft 234 kts 346°
2026-04-28 17:45 52.76555 -1.63590 3766 ft 214 kts 359°
2026-04-28 17:45 52.78433 -1.63620 3593 ft 193 kts 10°
2026-04-28 17:46 52.79290 -1.63459 3498 ft 180 kts 23°
2026-04-28 17:46 52.80583 -1.62046 3332 ft 165 kts 48°
2026-04-28 17:46 52.81377 -1.60696 3206 ft 162 kts 50°
2026-04-28 17:46 52.81895 -1.59784 3150 ft 161 kts 50°
2026-04-28 17:47 52.82490 -1.58245 3080 ft 160 kts 69°
2026-04-28 17:47 52.82639 -1.56409 2936 ft 163 kts 85°
2026-04-28 17:47 52.82675 -1.54551 2745 ft 159 kts 84°
2026-04-28 17:47 52.82698 -1.53365 2594 ft 152 kts 84°
2026-04-28 17:48 52.82744 -1.51095 2333 ft 145 kts 83°
2026-04-28 17:48 52.82777 -1.49437 2134 ft 145 kts 82°
2026-04-28 17:48 52.82811 -1.47774 1937 ft 145 kts 83°
2026-04-28 17:48 52.82843 -1.46135 1732 ft 139 kts 83°
2026-04-28 17:49 52.82872 -1.44607 1554 ft 127 kts 82°
2026-04-28 17:49 52.82901 -1.43202 1380 ft 120 kts 81°
2026-04-28 17:49 52.82942 -1.41844 1169 ft 118 kts 82°
2026-04-28 17:49 52.82961 -1.40489 1006 ft 118 kts 83°
2026-04-28 17:50 52.82977 -1.39129 865 ft 117 kts 80°
2026-04-28 17:50 52.83002 -1.37785 732 ft 119 kts 82°
2026-04-28 17:50 52.83029 -1.36441 577 ft 117 kts 80°
2026-04-28 17:50 52.83057 -1.35138 388 ft 115 kts 84°
2026-04-28 17:51 52.83081 -1.33853 305 ft 99 kts 85°
2026-04-28 17:51 52.83098 -1.33099 306 ft 49 kts 89°
2026-04-28 17:51 52.83102 -1.32711 301 ft 15 kts 91°
2026-04-28 17:51 52.83072 -1.32640 302 ft 10 kts 166°
2026-04-28 17:52 52.83011 -1.32694 302 ft 9 kts 222°
2026-04-28 17:52 52.82973 -1.32751 302 ft 7 kts 223°
2026-04-28 17:52 52.82876 -1.32858 301 ft 9 kts 176°
2026-04-28 17:53 52.82867 -1.32857 301 ft 1 kts 177°
2026-04-28 17:53 52.82839 -1.32856 301 ft 7 kts 180°
2026-04-28 17:53 52.82799 -1.32891 301 ft 4 kts 240°
2026-04-28 17:53 52.82795 -1.32921 301 ft 2 kts 263°
2026-04-28 17:54 52.82793 -1.32978 301 ft 7 kts 266°
2026-04-28 17:54 52.82752 -1.33000 301 ft 9 kts 177°
2026-04-28 17:54 52.82727 -1.32999 301 ft 2 kts 178°
2026-04-28 17:54 52.82721 -1.32999 301 ft 1 kts 178°
2026-04-28 17:55 52.82719 -1.32998 301 ft 0 kts 178°